Flag for Mexico

Past Weather in Mazatlan, Sinaloa, Mexico — Yesterday and Last 2 Weeks

Now
90 °F

Broken clouds.


Feels Like: 100 °F
Forecast: 90 / 81 °F
Wind: 5 mph from East

Location: Mazatlan / G. Buelna

Current Time: Aug 7, 2020 at 1:14:29 pm

Latest Report: Aug 7, 2020 at 11:42 am


Visibility: 14 mi

Pressure: 29.88 "Hg

Humidity: 63%

Dew Point: 75 °F

Location of MazatlanLocation

Past Weather in Mazatlan — Graph

°F

Mazatlan Temperature Yesterday

Maximum temperature yesterday: 93 °F (at 12:42 pm)
Minimum temperature yesterday: 81 °F (at 6:10 am)
Average temperature yesterday: 87 °F

High & Low Weather Summary for the Past Weeks

 TemperatureHumidityPressure
High93 °F (Aug 6, 12:42 pm)100% (Jul 27, 8:43 pm)29.97 "Hg (Jul 27, 8:43 pm)
Low73 °F (Jul 27, 8:43 pm)55% (Jul 23, 3:42 pm)29.53 "Hg (Jul 24, 5:58 am)
Average84 °F75%29.86 "Hg
* Reported Jul 23 11:44 am — Aug 7 11:42 am, Mazatlan. Weather by CustomWeather, © 2020

Note: Actual official high and low records may vary slightly from our data, if they occured in-between our weather recording intervals... More about our weather records

Mazatlan Weather History for the Previous 24 Hours

Scroll right to see more
 ConditionsComfort  
Time TempWeatherWind HumidityBarometerVisibility
11:42 am
Fri, Aug 7
90 °FBroken clouds.5 mph63%29.88 "Hg14 mi
10:43 am88 °FBroken clouds.No wind66%29.90 "Hg14 mi
9:44 am84 °FMostly cloudy.3 mph74%29.90 "Hg14 mi
8:45 am79 °FCloudy.3 mph89%29.85 "Hg14 mi
7:44 am77 °FMostly cloudy.3 mph89%29.87 "Hg12 mi
6:50 am77 °FMore clouds than sun.No wind89%29.84 "Hg12 mi
6:06 am77 °FMostly cloudy.No wind89%29.84 "Hg10 mi
9:43 pm
Thu, Aug 6
84 °FPartly cloudy.7 mph79%29.84 "Hg10 mi
8:43 pm84 °FPartly cloudy.10 mph84%29.80 "Hg10 mi
7:43 pm86 °FPartly cloudy.7 mph79%29.80 "Hg12 mi
6:40 pm88 °FScattered clouds.9 mph75%29.79 "Hg15 mi
5:43 pm90 °FScattered clouds.8 mph67%29.77 "Hg15 mi
4:45 pm91 °FScattered clouds.6 mph67%29.80 "Hg15 mi
3:42 pm90 °FScattered clouds.15 mph67%29.80 "Hg15 mi
2:44 pm91 °FScattered clouds.10 mph67%29.82 "Hg15 mi
1:41 pm91 °FScattered clouds.10 mph63%29.82 "Hg15 mi
Weather by CustomWeather, © 2020

See weather overview